Weather History for 03772 - December, 2012

Change the Weather History Date:

Monday, December 3, 2012

  Actual Average Record
Temperature  
Mean Temperature 44 °F -  
Max Temperature 51 °F 45 °F - ()
Min Temperature 35 °F 36 °F - ()
Degree Days  
Heating Degree Days 21    
Moisture  
Dew Point 40 °F    
Average Humidity 85    
Maximum Humidity 100    
Minimum Humidity 62    
Precipitation  
Precipitation 0.02 in - - ()
Sea Level Pressure  
Sea Level Pressure 29.74 in    
Wind  
Wind Speed 9 mph ()    
Max Wind Speed 16 mph    
Max Gust Speed 18 mph    
Visibility 6.9 miles    
Events Rain    
T = Trace of Precipitation, MM = Missing Value Source: Averaged Metar Reports

Daily Weather History Graph

Daily Weather History Graph

Search for Another Location

Airport or City:

Trip Planner

Search our weather history database for the weather conditions in past years. The results will help you decide how hot, cold, wet, or windy it might be!

Date:

Astronomy

Dec. 03, 2012 Rise Set
Actual Time 7:48 AM GMT 3:55 PM GMT
Civil Twilight 7:08 AM GMT 4:34 PM GMT
Nautical Twilight 6:26 AM GMT 5:16 PM GMT
Astronomical Twilight 5:46 AM GMT 5:57 PM GMT
Moon 8:45 PM GMT (12/3) 10:47 AM GMT (12/3)
Length of Visible Light 9h 25m
Length of Day
8h 06m
Waning Gibbous, 80% of the Moon is Illuminated
Dec 3
Waning Gibbous
Dec 6
Last Quarter
Dec 13
New
Dec 20
First Quarter
Dec 28
Full

Hourly Weather History & Observations

Time (GMT) Temp. Windchill Dew Point Humidity Pressure Visibility Wind Dir Wind Speed Gust Speed Precip Events Conditions
12:20 AM 37.4 °F 32.1 °F 35.6 °F 93% 29.92 in 5.0 mi SSE 6.9 mph - N/A Rain Light Rain
12:50 AM 37.4 °F 32.8 °F 35.6 °F 93% 29.92 in 3.7 mi SSE 5.8 mph - N/A Rain Light Rain
1:20 AM 37.4 °F 32.8 °F 37.4 °F 100% 29.89 in 3.1 mi SE 5.8 mph - N/A Rain Light Rain
1:50 AM 39.2 °F 34.2 °F 37.4 °F 93% 29.86 in 3.7 mi SE 6.9 mph - N/A Rain Light Rain
2:20 AM 39.2 °F 35.0 °F 37.4 °F 93% 29.86 in 3.7 mi SSE 5.8 mph - N/A Rain Light Rain
2:50 AM 39 °F - 39 °F 98% 29.83 in 3 mi SSE 4.6 mph - - Rain Light Rain
2:50 AM 39.2 °F 35.9 °F 37.4 °F 93% 29.83 in - SSE 4.6 mph - N/A Rain Rain
3:20 AM 39.2 °F 37.0 °F 39.2 °F 100% 29.80 in 2.5 mi South 3.5 mph - N/A Rain Light Rain
3:50 AM 42.8 °F 41.1 °F 41.0 °F 93% 29.80 in 3.1 mi Variable 3.5 mph - N/A Rain Light Rain
4:20 AM 44.6 °F 42.2 °F 42.8 °F 93% 29.77 in - SW 4.6 mph - N/A Rain Light Rain
4:50 AM 44.6 °F 40.7 °F 44.6 °F 100% 29.74 in 3.7 mi SSW 6.9 mph 18.4 mph N/A   Mostly Cloudy
5:20 AM 46.4 °F 40.7 °F 44.6 °F 93% 29.74 in 3.1 mi SW 12.7 mph - N/A   Mostly Cloudy
5:50 AM 46 °F - 46 °F 97% 29.74 in 12 mi SW 9.2 mph - - Rain Drizzle
5:50 AM 46.4 °F 41.9 °F 46.4 °F 100% 29.74 in 6.2 mi SW 9.2 mph - N/A   Mostly Cloudy
6:20 AM 48.2 °F - 46.4 °F 93% 29.71 in 6.2 mi WSW 11.5 mph - N/A   Mostly Cloudy
6:50 AM 50.0 °F - 48.2 °F 94% 29.71 in 6.2 mi West 13.8 mph - N/A   Mostly Cloudy
7:20 AM 50.0 °F - 46.4 °F 87% 29.71 in 6.2 mi West 11.5 mph - N/A   Mostly Cloudy
7:50 AM 50.0 °F - 48.2 °F 94% 29.74 in 6.2 mi West 12.7 mph - N/A   Mostly Cloudy
8:20 AM 50.0 °F - 48.2 °F 94% 29.71 in 6.2 mi WSW 10.4 mph - N/A   Mostly Cloudy
8:50 AM 51 °F - 48 °F 87% 29.72 in 16 mi WSW 11.5 mph - -   Mostly Cloudy
8:50 AM 50.0 °F - 48.2 °F 94% 29.71 in 6.2 mi WSW 12.7 mph - N/A   Mostly Cloudy
9:20 AM 51.8 °F - 48.2 °F 88% 29.71 in 6.2 mi WSW 11.5 mph - N/A   Mostly Cloudy
9:50 AM 51.8 °F - 48.2 °F 88% 29.71 in 2.2 mi West 16.1 mph - N/A Rain Rain
10:20 AM 50.0 °F - 48.2 °F 94% 29.71 in 6.2 mi West 11.5 mph - N/A   Scattered Clouds
10:50 AM 50.0 °F - 46.4 °F 87% 29.71 in 6.2 mi West 12.7 mph - N/A   Partly Cloudy
11:20 AM 50.0 °F - 46.4 °F 87% 29.71 in 6.2 mi West 11.5 mph - N/A   Mostly Cloudy
11:50 AM 50 °F - 44 °F 74% 29.74 in 22 mi West 15.0 mph - - Rain Rain
11:50 AM 48.2 °F - 44.6 °F 87% 29.74 in 6.2 mi West 16.1 mph - N/A   Mostly Cloudy
12:20 PM 50.0 °F - 44.6 °F 82% 29.74 in 6.2 mi WNW 16.1 mph - N/A   Partly Cloudy
12:50 PM 48.2 °F - 41.0 °F 76% 29.74 in 6.2 mi WNW 12.7 mph - N/A   Partly Cloudy
1:20 PM 48.2 °F - 41.0 °F 76% 29.74 in 6.2 mi West 13.8 mph - N/A   Partly Cloudy
1:50 PM 46.4 °F 40.1 °F 39.2 °F 76% 29.74 in 6.2 mi WNW 15.0 mph - N/A   Partly Cloudy
2:20 PM 46.4 °F 40.1 °F 39.2 °F 76% 29.74 in 6.2 mi West 15.0 mph - N/A   Partly Cloudy
2:50 PM 46 °F - 37 °F 62% 29.75 in 19 mi West 13.8 mph - -   Scattered Clouds
2:50 PM 46.4 °F 40.4 °F 37.4 °F 71% 29.74 in 6.2 mi West 13.8 mph - N/A   Partly Cloudy
3:20 PM 44.6 °F 37.4 °F 37.4 °F 76% 29.74 in 6.2 mi West 16.1 mph - N/A   Partly Cloudy
3:50 PM 44.6 °F 38.1 °F 37.4 °F 76% 29.74 in - WSW 13.8 mph - N/A   Clear
4:20 PM 44.6 °F 38.8 °F 37.4 °F 76% 29.74 in 6.2 mi WSW 11.5 mph - N/A   Partly Cloudy
4:50 PM 42.8 °F 36.6 °F 37.4 °F 81% 29.74 in - West 11.5 mph - N/A   Clear
5:20 PM 42.8 °F 36.6 °F 37.4 °F 81% 29.71 in - WSW 11.5 mph - N/A   Clear
5:50 PM 43 °F - 37 °F 73% 29.73 in 16 mi WSW 11.5 mph - -   Mostly Cloudy
5:50 PM 42.8 °F 36.2 °F 37.4 °F 81% 29.71 in - WSW 12.7 mph - N/A   Clear
6:20 PM 42.8 °F 36.6 °F 37.4 °F 81% 29.71 in - West 11.5 mph - N/A   Clear
6:50 PM 42.8 °F 36.6 °F 37.4 °F 81% 29.71 in - West 11.5 mph - N/A   Clear
7:20 PM 41.0 °F 34.3 °F 37.4 °F 87% 29.71 in - West 11.5 mph - N/A   Clear
7:50 PM 42.8 °F 35.8 °F 37.4 °F 81% 29.68 in - West 13.8 mph - N/A   Clear
8:20 PM 42.8 °F 37.0 °F 37.4 °F 81% 29.68 in - West 10.4 mph - N/A   Clear
8:50 PM 41 °F - 36 °F 75% 29.68 in 14 mi West 11.5 mph - -   Partly Cloudy
8:50 PM 42.8 °F 36.2 °F 35.6 °F 76% 29.68 in - West 12.7 mph - N/A   Clear
9:20 PM 42.8 °F 35.1 °F 35.6 °F 76% 29.65 in - West 16.1 mph - N/A   Clear
9:50 PM 42.8 °F 35.4 °F 35.6 °F 76% 29.65 in - West 15.0 mph - N/A   Clear
10:20 PM 39.2 °F 31.6 °F 33.8 °F 81% 29.65 in - West 12.7 mph - N/A   Clear
10:50 PM 41.0 °F 35.8 °F 33.8 °F 76% 29.65 in - West 8.1 mph - N/A   Clear
11:20 PM 39.2 °F 33.0 °F 33.8 °F 81% 29.65 in - West 9.2 mph - N/A   Clear
11:50 PM 37 °F - 34 °F 84% 29.66 in 16 mi West 8.1 mph - -   Scattered Clouds
11:50 PM 35.6 °F 29.2 °F 33.8 °F 93% 29.65 in - West 8.1 mph - N/A   Clear